Regional Weather Roundup
Issued by NWS

Home | Current Version | Previous Version | Graphics & Text | Print | Product List | Glossary On
Versions: 1 2 3 4 5 6 7 8 9 10 11 12 13 14 15 16 17 18 19 20 21 22 23 24 25 26 27 28 29 30 31 32 33 34 35 36 37 38 39 40 41 42 43 44 45 46 47 48 49 50
000
ASUS43 KOAX 230510
RWRNE

WEATHER ROUNDUP FOR NEBRASKA
NATIONAL WEATHER SERVICE OMAHA NE
1200 AM CDT SUN JUL 23 2017

NOTES: SATELLITE DATA IS BEING USED TO AUGMENT CLOUD COVER ABOVE
       12000 FEET.
       "FAIR" INDICATES FEW OR NO CLOUDS BELOW 12,000 FEET WITH NO
       SIGNIFICANT WEATHER AND/OR OBSTRUCTIONS TO VISIBILITY.


NEZ001>004-019>022-054>056-230600-
NEBRASKA PANHANDLE

CITY           SKY/WX    TMP DP  RH WIND       PRES   REMARKS
SCOTTSBLUFF    CLEAR     68  54  60 E6        30.12R
ALLIANCE       CLEAR     66  45  46 E3        30.12R
CHADRON        CLEAR     71  52  50 S6        30.07S
GORDON         FAIR      67  58  73 CALM      30.10S
KIMBALL        CLOUDY    65  54  65 SE7       30.19S
SIDNEY         CLOUDY    63  48  58 SW7       30.16S
$$

NEZ057>060-069>072-079>082-230600-
SOUTHWEST NEBRASKA

CITY           SKY/WX    TMP DP  RH WIND       PRES   REMARKS
NORTH PLATTE   CLEAR     64  59  83 CALM      30.07R
IMPERIAL       CLEAR     69  54  58 CALM      30.10R
LEXINGTON      CLEAR     68  65  92 E5        30.05R
MCCOOK         CLEAR     69  61  75 N5        30.04R
OGALLALA       CLEAR     65  50  58 W3        30.10S
$$

NEZ005>010-023>029-035>040-094-230600-
NORTH CENTRAL NEBRASKA

CITY           SKY/WX    TMP DP  RH WIND       PRES   REMARKS
VALENTINE      CLEAR     77  49  37 N7        30.02R
AINSWORTH      PTCLDY    72  60  65 SW9       30.02R
BROKEN BOW     CLEAR     64  61  90 CALM      30.05R
O`NEILL        CLEAR     67  64  89 SW7       29.98S
ORD            CLEAR     66  62  87 SW5       30.00R
THEDFORD       CLEAR     68  53  58 W3        30.07R
$$

NEZ041-046>049-061>064-073>077-083>087-230600-
SOUTH CENTRAL NEBRASKA

CITY           SKY/WX    TMP DP  RH WIND       PRES   REMARKS
GRAND ISLAND   CLOUDY    70  69  97 NW7       30.00F
AURORA         PTCLDY    69  69  99 N6        29.99S
HASTINGS       PTCLDY    74  70  87 N6        30.00F
HEBRON         MOCLDY    76  68  75 E3        29.96S
HOLDREGE       CLEAR     70  68  95 N6        30.02S FOG
KEARNEY        CLEAR     70  69  97 N6        30.02F
YORK           MOCLDY    72  72 100 NW3       29.98F
$$

NEZ011>018-030>034-042>045-230600-
NORTHEAST NEBRASKA

CITY           SKY/WX    TMP DP  RH WIND       PRES   REMARKS
NORFOLK        CLEAR     66  64  93 SW7       29.94F
ALBION         CLEAR     64  63  97 CALM      29.98F FOG
BLAIR          PTCLDY    72  71  95 CALM      29.94R
COLUMBUS       CLOUDY    67  65  93 CALM      29.97R
FREMONT        CLOUDY    71  69  93 CALM      29.95R
TEKAMAH        PTCLDY    68  65  90 CALM      29.92R
WAYNE          MOCLDY    64  64  99 SW7       29.93F FOG
$$

NEZ050>053-065>068-078-088>093-230600-
SOUTHEAST NEBRASKA

CITY           SKY/WX    TMP DP  RH WIND       PRES   REMARKS
LINCOLN        CLOUDY    76  72  87 CALM      29.95S
OMAHA EPPLEY   PTCLDY    76  71  85 S3        29.93R
BEATRICE       CLOUDY    79  73  79 S5        29.96R
FALLS CITY     CLOUDY    81  73  76 SW9       29.93S
NEBRASKA CITY  CLOUDY    78  78 100 W6        29.95R
PLATTSMOUTH    CLOUDY    75  71  89 CALM      29.94R
$$

NEZ044-045-051>053-067-230600-
OMAHA AREA

CITY           SKY/WX    TMP DP  RH WIND       PRES   REMARKS
OMAHA EPPLEY   PTCLDY    76  71  85 S3        29.93R
BLAIR          PTCLDY    72  71  95 CALM      29.94R
FREMONT        CLOUDY    71  69  93 CALM      29.95R
MILLARD        MOCLDY    77  73  88 CALM      29.94R
OFFUTT AFB     PTCLDY    76  70  83 NW5       29.93
PLATTSMOUTH    CLOUDY    75  71  89 CALM      29.94R
WAHOO          FAIR      70  69  96 CALM      29.95R
$$




USA.gov is the U.S. government's official web portal to all federal, state and local government web resources and services.